Date String (YYYY-MM-DD hh:mm:ss) UTC,Instrument flags,Ambient pressure (hPa),Sample flow (lpm),Bypass flow (lpm),Sample temperature (°C),Ambient temperature (°C),ASC tube jacket temperature (°C),LED temperature (°C),Box temperature (°C),Sample RH (%),Span deviation,Mass concentration (μg/m³),Mass concentration (μg/m³),Mass concentration (μg/m³)
DateTimeUTC,F1_M11,P_M11,Q1_M11,Q2_M11,T1_M11,T2_M11,T3_M11,T4_M11,T5_M11,U1_M11,ZSPAN_M11,X0_M11,X2_M11,X1_M11
2022-03-10 23:00:00,,0822.7,5.01,0.00,21.4,20.7,00.0,30.5,23.2,07.1,0000.3,0012.33,0008.51,0008.03
2022-03-10 23:01:00,,0822.6,5.00,0.00,21.4,20.8,00.0,30.5,23.2,07.1,0000.3,0013.12,0008.58,0008.09
2022-03-10 23:02:00,,0822.6,5.00,0.00,21.4,20.8,00.0,30.5,23.2,07.1,0000.3,0013.20,0008.65,0008.15
2022-03-10 23:03:00,,0822.6,5.00,0.00,21.4,20.8,00.0,30.5,23.2,07.0,0000.0,0013.13,0008.68,0008.20
2022-03-10 23:04:00,,0822.6,4.99,0.00,21.4,20.7,00.0,30.5,23.1,07.0,0000.0,0013.07,0008.74,0008.27
2022-03-10 23:05:00,,0822.6,4.99,0.00,21.4,20.7,00.0,30.5,23.1,07.1,0000.0,0013.46,0008.78,0008.32
2022-03-10 23:06:00,,0822.6,5.00,0.00,21.4,20.7,00.0,30.5,23.1,07.3,0000.0,0013.02,0008.84,0008.38
2022-03-10 23:07:00,,0822.6,4.99,0.00,21.4,20.7,00.0,30.5,23.1,07.0,0000.0,0013.06,0008.91,0008.45
2022-03-10 23:08:00,,0822.6,4.99,0.00,21.4,20.8,00.0,30.5,23.0,07.1,0000.0,0013.18,0008.98,0008.53
2022-03-10 23:09:00,,0822.7,5.00,0.00,21.5,21.4,00.0,30.5,23.3,06.9,0001.3,0013.32,0009.05,0008.58
2022-03-10 23:10:00,,0822.6,5.01,0.00,21.6,22.2,00.0,30.5,23.6,07.0,0002.7,0013.42,0009.12,0008.62
2022-03-10 23:11:00,,0822.7,5.00,0.00,21.8,22.6,00.0,30.6,23.8,07.0,0002.6,0013.47,0009.17,0008.67
2022-03-10 23:12:00,,0822.7,4.99,0.00,21.8,22.4,00.0,30.6,23.8,07.0,0002.5,0013.09,0009.22,0008.71
2022-03-10 23:13:00,,0822.7,4.99,0.00,21.8,22.1,00.0,30.6,23.8,06.8,0002.0,0012.67,0009.22,0008.73
2022-03-10 23:14:00,,0822.7,5.00,0.00,21.8,21.8,00.0,30.7,23.7,06.7,0001.7,0012.84,0009.23,0008.74
2022-03-10 23:15:00,,0822.9,5.00,0.00,21.8,21.6,00.0,30.7,23.6,06.7,0001.5,0013.24,0009.23,0008.74
2022-03-10 23:16:00,,0822.8,5.00,0.00,21.8,21.4,00.0,30.7,23.6,06.9,0001.7,0012.97,0009.23,0008.73
2022-03-10 23:17:00,,0822.8,5.00,0.00,21.8,21.2,00.0,30.7,23.5,06.8,0001.1,0012.68,0009.21,0008.72
2022-03-10 23:18:00,,0822.7,5.01,0.00,21.7,21.1,00.0,30.7,23.4,06.7,0000.0,0012.68,0009.21,0008.73
2022-03-10 23:19:00,,0822.7,5.00,0.00,21.7,21.0,00.0,30.7,23.3,06.7,0000.0,0012.66,0009.22,0008.72
2022-03-10 23:20:00,,0822.8,4.98,0.00,21.7,20.9,00.0,30.7,23.3,06.8,0000.0,0012.57,0009.20,0008.73
2022-03-10 23:21:00,,0822.8,5.00,0.00,21.6,20.8,00.0,30.7,23.2,06.8,0000.0,0012.53,0009.17,0008.73
2022-03-10 23:22:00,,0822.8,5.01,0.00,21.6,20.8,00.0,30.7,23.3,06.8,0000.0,0012.46,0009.14,0008.72
2022-03-10 23:23:00,,0822.7,5.00,0.00,21.6,20.8,00.0,30.7,23.3,06.9,0000.0,0012.27,0009.11,0008.72
2022-03-10 23:24:00,,0822.7,4.99,0.00,21.6,20.8,00.0,30.6,23.2,06.8,0000.0,0012.35,0009.12,0008.71
2022-03-10 23:25:00,,0822.7,5.00,0.00,21.5,20.6,00.0,30.6,23.1,06.7,0000.0,0012.39,0009.13,0008.70
2022-03-10 23:26:00,,0822.8,5.01,0.00,21.5,20.6,00.0,30.6,23.1,06.8,0000.0,0011.87,0009.13,0008.70
2022-03-10 23:27:00,,0822.8,4.99,0.00,21.5,20.5,00.0,30.6,23.0,07.1,0000.1,0011.92,0009.11,0008.69
2022-03-10 23:28:00,,0823.0,5.00,0.00,21.4,20.5,00.0,30.6,23.0,07.0,0000.2,0012.07,0009.12,0008.68
2022-03-10 23:29:00,,0823.0,5.00,0.00,21.4,20.4,00.0,30.5,23.0,06.9,0000.0,0012.05,0009.08,0008.64
2022-03-10 23:30:00,,0823.0,5.01,0.00,21.4,20.5,00.0,30.5,23.0,07.1,0000.0,0011.95,0009.04,0008.61
2022-03-10 23:31:00,,0823.0,4.99,0.00,21.4,20.6,00.0,30.5,23.1,07.2,0000.0,0011.87,0009.01,0008.58
2022-03-10 23:32:00,,0823.0,5.00,0.00,21.4,20.6,00.0,30.5,23.1,07.0,0000.1,0011.95,0009.01,0008.55
2022-03-10 23:33:00,,0823.0,5.00,0.00,21.4,20.7,00.0,30.5,23.1,06.9,0000.8,0011.95,0009.00,0008.53
2022-03-10 23:34:00,,0823.0,5.00,0.00,21.4,20.7,00.0,30.5,23.1,06.8,0001.2,0012.02,0009.02,0008.52
2022-03-10 23:35:00,,0823.1,5.00,0.00,21.4,20.7,00.0,30.5,23.1,06.9,0001.2,0011.97,0009.00,0008.50
2022-03-10 23:36:00,,0823.1,4.98,0.00,21.4,20.7,00.0,30.5,23.1,07.1,0001.5,0011.88,0008.96,0008.49
2022-03-10 23:37:00,,0823.1,5.00,0.00,21.4,20.7,00.0,30.5,23.1,07.3,0001.7,0011.84,0008.94,0008.46
2022-03-10 23:38:00,,0823.1,5.01,0.00,21.4,20.8,00.0,30.5,23.2,07.2,0001.7,0011.70,0008.91,0008.42
2022-03-10 23:39:00,,0823.2,5.00,0.00,21.5,20.9,00.0,30.5,23.2,07.0,0002.0,0011.56,0008.87,0008.40
2022-03-10 23:40:00,,0823.1,5.00,0.00,21.5,21.1,00.0,30.5,23.2,07.0,0002.6,0011.67,0008.84,0008.37
2022-03-10 23:41:00,,0823.2,4.99,0.00,21.6,21.9,00.0,30.6,23.5,07.1,0002.3,0011.77,0008.84,0008.33
2022-03-10 23:42:00,,0823.2,5.00,0.00,21.8,22.6,00.0,30.6,23.8,06.8,0002.2,0012.22,0008.81,0008.30
2022-03-10 23:43:00,,0823.2,5.00,0.00,21.9,22.6,00.0,30.6,23.9,06.8,0001.9,0012.05,0008.73,0008.26
2022-03-10 23:44:00,,0823.2,5.02,0.00,21.9,22.4,00.0,30.7,23.9,06.7,0002.2,0012.02,0008.70,0008.21
2022-03-10 23:45:00,,0823.2,4.99,0.00,21.9,22.2,00.0,30.7,23.8,06.7,0001.9,0012.07,0008.63,0008.16
2022-03-10 23:46:00,,0823.2,5.01,0.00,21.9,22.0,00.0,30.7,23.7,06.7,0001.9,0012.26,0008.58,0008.12
2022-03-10 23:47:00,,0823.2,4.98,0.00,21.9,21.8,00.0,30.7,23.7,06.7,0001.6,0013.15,0008.54,0008.09
2022-03-10 23:48:00,,0823.2,5.01,0.00,21.9,21.7,00.0,30.8,23.7,06.8,0000.4,0013.10,0008.50,0008.06
2022-03-10 23:49:00,,0823.1,5.01,0.00,21.9,21.6,00.0,30.8,23.7,06.8,0000.0,0013.08,0008.49,0008.05
2022-03-10 23:50:00,,0823.1,5.01,0.00,21.9,21.5,00.0,30.8,23.6,06.9,0000.0,0013.65,0008.46,0008.02
2022-03-10 23:51:00,,0823.1,5.00,0.00,21.9,21.4,00.0,30.8,23.6,06.8,0000.0,0013.58,0008.44,0008.00
2022-03-10 23:52:00,,0823.2,5.01,0.00,21.8,21.4,00.0,30.8,23.5,06.7,0000.0,0013.46,0008.39,0007.99
2022-03-10 23:53:00,,0823.2,5.00,0.00,21.8,21.3,00.0,30.8,23.5,06.7,0000.0,0013.01,0008.35,0007.96
2022-03-10 23:54:00,,0823.2,5.00,0.00,21.8,21.3,00.0,30.8,23.5,06.8,0000.0,0012.91,0008.31,0007.93
2022-03-10 23:55:00,,0823.3,5.00,0.00,21.8,21.3,00.0,30.8,23.5,06.9,0000.0,0012.85,0008.27,0007.90
2022-03-10 23:56:00,,0823.4,5.00,0.00,21.8,21.2,00.0,30.8,23.5,07.0,0000.0,0012.71,0008.22,0007.86
2022-03-10 23:57:00,,0823.4,5.00,0.00,21.8,21.2,00.0,30.8,23.5,06.8,0000.0,0012.31,0008.17,0007.82
2022-03-10 23:58:00,,0823.3,5.00,0.00,21.8,21.2,00.0,30.8,23.4,06.7,0000.0,0011.45,0008.13,0007.78
2022-03-10 23:59:00,,0823.4,5.00,0.00,21.8,21.2,00.0,30.8,23.5,06.8,0000.0,0011.23,0008.09,0007.74
